This demonstration page uses our WeatherBlox Daily Observations layout. Learn more.

Left ArrowRight Arrow

39.29038, -76.61219

Hourly Observations for November 6, 2018

Temp ( °F °C ) Dew Point ( °F °C ) Humidity (%) Winds ( mph kmh ) Pressure ( in mb ) Visibility ( mi km ) Precip ( " mm )
12:54 am 00:54 undefined 54 12.2 52 11.1 93 93 undefined N/A 30.05 1018 N/A 0.00 0.00
1:54 am 01:54 undefined 54 12.2 52 11.1 93 93 undefined N/A 30.03 1017 N/A 0.00 0.00
2:54 am 02:54 undefined 54 12.2 52 11.1 93 93 undefined N/A 30.01 1016 N/A 0.00 0.00
3:54 am 03:54 undefined 54 12.2 52 11.1 93 93 undefined N/A 29.98 1015 N/A 0.00 0.00
4:54 am 04:54 undefined 55 12.8 53 11.7 93 93 undefined N/A 29.98 1015 N/A 0.00 0.00
5:54 am 05:54 undefined 55 12.8 53 11.7 93 93 undefined N/A 29.93 1014 N/A 0.00 0.00
6:54 am 06:54 undefined 56 13.3 54 12.2 93 93 undefined N/A 29.93 1014 N/A 0.00 0.00
7:54 am 07:54 undefined 56 13.3 54 12.2 93 93 undefined N/A 29.88 1012 N/A 0.02 0.51
8:54 am 08:54 undefined 57 13.9 55 12.8 93 93 undefined N/A 29.89 1012 N/A 0.20 5.08
9:54 am 09:54 undefined 57 13.9 55 12.8 93 93 undefined N/A 29.88 1012 N/A 0.26 6.60
10:54 am 10:54 undefined 57 13.9 54 12.2 90 90 undefined N/A 29.87 1012 N/A 0.29 7.37
11:54 am 11:54 undefined 58 14.4 56 13.3 93 93 undefined N/A 29.88 1012 N/A 0.24 6.10
12:54 pm 12:54 undefined 58 14.4 56 13.3 93 93 undefined N/A 29.81 1009 N/A 0.01 0.25
1:54 pm 13:54 undefined 59 15 57 13.9 93 93 undefined N/A 29.80 1009 N/A 0.00 0.00
2:54 pm 14:54 undefined 60 15.6 57 13.9 90 90 undefined N/A 29.83 1010 N/A 0.00 0.00
3:54 pm 15:54 undefined 60 15.6 57 13.9 90 90 undefined N/A 29.81 1010 N/A 0.04 1.02
4:54 pm 16:54 undefined 60 15.6 57 13.9 90 90 undefined N/A 29.81 1010 N/A 0.01 0.25
5:54 pm 17:54 undefined 59 15 57 13.9 93 93 undefined N/A 29.83 1010 N/A 0.00 0.00
6:54 pm 18:54 undefined 59 15 56 13.3 90 90 undefined N/A 29.84 1011 N/A 0.00 0.00
7:54 pm 19:54 undefined 57 13.9 55 12.8 93 93 undefined N/A 29.85 1011 N/A 0.00 0.00
8:54 pm 20:54 undefined 57 13.9 54 12.2 90 90 undefined N/A 29.87 1012 N/A 0.00 0.00
9:54 pm 21:54 undefined 56 13.3 53 11.7 90 90 undefined N/A 29.90 1012 N/A 0.00 0.00
10:54 pm 22:54 undefined 55 12.8 52 11.1 90 90 undefined N/A 29.91 1013 N/A 0.00 0.00
11:54 pm 23:54 undefined 57 13.9 50 10 78 78 undefined N/A 29.93 1014 N/A 0.00 0.00

Powered by AerisWeather